• în România
  • Lista ţărilor
  • Pe 7 zile
  • Temperatura apei
  • Hartă satelitară
  • Meteo pe hartă
  • Widget-uri
  • user-avatar
    Intrare

    Meteo pe oră la Szeged

    Astăzi, 15 Octombrie, Luni

    Timp Temperatura Precipitaţii Vânt Presiune Umiditate
    00:00 +14°C° 0 mm 3 m/s 760 mmHg 32%
    01:00 +14°C° 0 mm 2 m/s 760 mmHg 34%
    02:00 +14°C° 0 mm 2 m/s 760 mmHg 35%
    03:00 +14°C° 0 mm 2 m/s 760 mmHg 36%
    04:00 +12°C° 0 mm 3 m/s 760 mmHg 38%
    05:00 +12°C° 0 mm 3 m/s 760 mmHg 38%
    06:00 +12°C° 0 mm 3 m/s 760 mmHg 39%
    07:00 +13°C° 0 mm 3 m/s 761 mmHg 40%
    08:00 +16°C° 0 mm 3 m/s 760 mmHg 36%
    09:00 +18°C° 0 mm 3 m/s 760 mmHg 33%
    10:00 +20°C° 0 mm 3 m/s 760 mmHg 29%
    11:00 +21°C° 0 mm 3 m/s 760 mmHg 27%
    12:00 +22°C° 0 mm 3 m/s 760 mmHg 25%
    13:00 +24°C° 0 mm 3 m/s 760 mmHg 23%
    14:00 +24°C° 0 mm 3 m/s 759 mmHg 23%
    15:00 +24°C° 0 mm 3 m/s 759 mmHg 24%
    16:00 +23°C° 0 mm 2 m/s 759 mmHg 24%
    17:00 +21°C° 0 mm 2 m/s 759 mmHg 27%
    18:00 +19°C° 0 mm 2 m/s 759 mmHg 29%
    19:00 +17°C° 0 mm 2 m/s 759 mmHg 31%
    20:00 +17°C° 0 mm 2 m/s 759 mmHg 33%
    21:00 +16°C° 0 mm 2 m/s 759 mmHg 34%
    22:00 +16°C° 0 mm 2 m/s 759 mmHg 35%
    23:00 +15°C° 0 mm 2 m/s 759 mmHg 36%

    Mâine, 16 Octombrie, Marţi

    Timp Temperatura Precipitaţii Vânt Presiune Umiditate
    00:00 +15°C° 0 mm 2 m/s 759 mmHg 37%
    01:00 +14°C° 0 mm 2 m/s 759 mmHg 38%
    02:00 +14°C° 0 mm 2 m/s 759 mmHg 39%
    03:00 +14°C° 0 mm 2 m/s 759 mmHg 40%
    04:00 +14°C° 0 mm 2 m/s 759 mmHg 41%
    05:00 +14°C° 0 mm 2 m/s 759 mmHg 42%
    06:00 +14°C° 0 mm 2 m/s 760 mmHg 42%
    07:00 +14°C° 0 mm 2 m/s 760 mmHg 42%
    08:00 +16°C° 0 mm 3 m/s 760 mmHg 38%
    09:00 +19°C° 0 mm 3 m/s 760 mmHg 33%
    10:00 +21°C° 0 mm 4 m/s 760 mmHg 29%
    11:00 +22°C° 0 mm 3 m/s 760 mmHg 28%
    12:00 +24°C° 0 mm 3 m/s 759 mmHg 27%
    13:00 +26°C° 0 mm 3 m/s 759 mmHg 25%
    14:00 +25°C° 0 mm 3 m/s 759 mmHg 26%
    15:00 +25°C° 0 mm 3 m/s 759 mmHg 27%
    16:00 +24°C° 0 mm 2 m/s 758 mmHg 28%
    17:00 +23°C° 0 mm 2 m/s 759 mmHg 30%
    18:00 +20°C° 0 mm 2 m/s 759 mmHg 31%
    19:00 +19°C° 0 mm 2 m/s 759 mmHg 33%
    20:00 +18°C° 0 mm 2 m/s 759 mmHg 33%
    21:00 +17°C° 0 mm 2 m/s 759 mmHg 34%
    22:00 +17°C° 0 mm 2 m/s 759 mmHg 34%
    23:00 +16°C° 0 mm 2 m/s 759 mmHg 35%

    Poimâine, 17 Octombrie, Miercuri

    Timp Temperatura Precipitaţii Vânt Presiune Umiditate
    00:00 +16°C° 0 mm 1 m/s 759 mmHg 36%
    01:00 +15°C° 0 mm 1 m/s 759 mmHg 38%
    02:00 +15°C° 0 mm 1 m/s 759 mmHg 38%
    03:00 +14°C° 0 mm 1 m/s 759 mmHg 39%
    04:00 +14°C° 0 mm 2 m/s 759 mmHg 40%
    05:00 +14°C° 0 mm 2 m/s 759 mmHg 40%
    06:00 +14°C° 0 mm 2 m/s 759 mmHg 40%
    07:00 +14°C° 0 mm 2 m/s 759 mmHg 40%
    08:00 +17°C° 0 mm 2 m/s 759 mmHg 36%
    09:00 +19°C° 0 mm 2 m/s 759 mmHg 31%
    10:00 +21°C° 0 mm 2 m/s 759 mmHg 26%
    11:00 +23°C° 0 mm 2 m/s 758 mmHg 25%
    12:00 +24°C° 0 mm 2 m/s 758 mmHg 23%
    13:00 +25°C° 0 mm 2 m/s 757 mmHg 21%
    14:00 +25°C° 0 mm 2 m/s 757 mmHg 22%
    15:00 +25°C° 0 mm 2 m/s 757 mmHg 22%
    16:00 +24°C° 0 mm 2 m/s 756 mmHg 23%
    17:00 +21°C° 0 mm 2 m/s 757 mmHg 25%
    18:00 +20°C° 0 mm 2 m/s 757 mmHg 27%
    19:00 +18°C° 0 mm 2 m/s 757 mmHg 29%
    20:00 +19°C° 0 mm 1 m/s 757 mmHg 31%
    21:00 +18°C° 0 mm 1 m/s 757 mmHg 32%
    22:00 +18°C° 0 mm 1 m/s 757 mmHg 33%
    23:00 +16°C° 0 mm 1 m/s 757 mmHg 35%

    18 Octombrie, Joi

    Timp Temperatura Precipitaţii Vânt Presiune Umiditate
    00:00 +16°C° 0 mm 1 m/s 757 mmHg 36%
    01:00 +15°C° 0 mm 1 m/s 757 mmHg 38%
    02:00 +15°C° 0 mm 1 m/s 757 mmHg 40%
    03:00 +15°C° 0 mm 1 m/s 757 mmHg 42%
    04:00 +15°C° 0 mm 1 m/s 757 mmHg 43%
    05:00 +15°C° 0 mm 1 m/s 757 mmHg 45%
    06:00 +15°C° 0 mm 1 m/s 757 mmHg 46%
    07:00 +15°C° 0 mm 1 m/s 757 mmHg 47%
    08:00 +17°C° 0 mm 2 m/s 757 mmHg 43%
    09:00 +20°C° 0 mm 2 m/s 757 mmHg 40%
    10:00 +23°C° 0 mm 2 m/s 757 mmHg 37%
    11:00 +24°C° 0 mm 2 m/s 757 mmHg 35%
    12:00 +25°C° 0 mm 2 m/s 756 mmHg 33%
    13:00 +26°C° 0 mm 3 m/s 756 mmHg 31%
    14:00 +25°C° 0 mm 2 m/s 756 mmHg 32%
    15:00 +25°C° 0 mm 2 m/s 756 mmHg 33%
    16:00 +24°C° 0 mm 2 m/s 756 mmHg 33%
    17:00 +23°C° 0 mm 2 m/s 756 mmHg 36%
    18:00 +20°C° 0 mm 2 m/s 756 mmHg 39%
    19:00 +18°C° 0 mm 2 m/s 756 mmHg 42%
    20:00 +18°C° 0 mm 2 m/s 756 mmHg 43%
    21:00 +18°C° 0 mm 1 m/s 756 mmHg 44%
    22:00 +18°C° 0 mm 1 m/s 757 mmHg 44%
    23:00 +16°C° 0 mm 1 m/s 757 mmHg 46%

    19 Octombrie, Vineri

    Timp Temperatura Precipitaţii Vânt Presiune Umiditate
    00:00 +16°C° 0 mm 1 m/s 757 mmHg 47%
    01:00 +14°C° 0 mm 0 m/s 757 mmHg 48%
    02:00 +14°C° 0 mm 0 m/s 757 mmHg 49%
    03:00 +14°C° 0 mm 0 m/s 757 mmHg 51%
    04:00 +14°C° 0 mm 1 m/s 757 mmHg 52%
    05:00 +15°C° 0 mm 1 m/s 757 mmHg 52%
    06:00 +15°C° 0 mm 1 m/s 757 mmHg 52%
    07:00 +15°C° 0 mm 1 m/s 757 mmHg 52%
    08:00 +18°C° 0 mm 1 m/s 757 mmHg 47%
    09:00 +20°C° 0 mm 1 m/s 757 mmHg 42%
    10:00 +22°C° 0 mm 1 m/s 758 mmHg 37%
    11:00 +23°C° 0 mm 1 m/s 757 mmHg 35%
    12:00 +24°C° 0 mm 2 m/s 757 mmHg 32%
    13:00 +25°C° 0 mm 2 m/s 757 mmHg 30%
    14:00 +24°C° 0 mm 2 m/s 757 mmHg 31%
    15:00 +24°C° 0 mm 2 m/s 757 mmHg 32%
    16:00 +24°C° 0 mm 2 m/s 757 mmHg 33%
    17:00 +21°C° 0 mm 2 m/s 757 mmHg 37%
    18:00 +20°C° 0 mm 2 m/s 757 mmHg 41%
    19:00 +19°C° 0 mm 1 m/s 757 mmHg 45%
    20:00 +18°C° 0 mm 1 m/s 757 mmHg 47%
    21:00 +18°C° 0 mm 1 m/s 757 mmHg 50%
    22:00 +16°C° 0 mm 1 m/s 758 mmHg 52%
    23:00 +16°C° 0 mm 1 m/s 758 mmHg 55%

    20 Octombrie, Sâmbătă

    Timp Temperatura Precipitaţii Vânt Presiune Umiditate
    00:00 +16°C° 0 mm 2 m/s 758 mmHg 57%
    01:00 +15°C° 0 mm 2 m/s 758 mmHg 59%
    02:00 +15°C° 0 mm 2 m/s 758 mmHg 61%
    03:00 +14°C° 0 mm 2 m/s 758 mmHg 63%
    04:00 +14°C° 0 mm 2 m/s 758 mmHg 65%
    05:00 +14°C° 0 mm 2 m/s 758 mmHg 66%
    06:00 +14°C° 0 mm 2 m/s 759 mmHg 66%
    07:00 +14°C° 0 mm 2 m/s 759 mmHg 66%
    08:00 +16°C° 0 mm 2 m/s 759 mmHg 59%
    09:00 +18°C° 0 mm 2 m/s 759 mmHg 52%
    10:00 +20°C° 0 mm 3 m/s 759 mmHg 45%
    11:00 +21°C° 0 mm 3 m/s 759 mmHg 43%
    12:00 +22°C° 0 mm 3 m/s 759 mmHg 41%
    13:00 +24°C° 0 mm 3 m/s 759 mmHg 38%
    14:00 +24°C° 0 mm 3 m/s 759 mmHg 40%
    15:00 +22°C° 0 mm 3 m/s 759 mmHg 41%
    16:00 +22°C° 0 mm 3 m/s 759 mmHg 43%
    17:00 +20°C° 0 mm 2 m/s 759 mmHg 47%
    18:00 +19°C° 0 mm 2 m/s 759 mmHg 51%
    19:00 +18°C° 0 mm 2 m/s 759 mmHg 55%
    20:00 +17°C° 0 mm 2 m/s 760 mmHg 57%
    21:00 +17°C° 0 mm 2 m/s 760 mmHg 59%
    22:00 +16°C° 0 mm 2 m/s 760 mmHg 60%
    23:00 +16°C° 0 mm 2 m/s 760 mmHg 63%
    Arată mai mult